Time,TemperatureF,DewpointF,PressureIn,WindDirection,WindDirectionDegrees,WindSpeedMPH,WindSpeedGustMPH,Humidity,HourlyPrecipIn,Conditions,Clouds,dailyrainin,SoftwareType,DateUTC
2013-12-06 00:01:00,52.7,52.3,29.86,South,180,1.0,1.0,99,0.00,,,0.02,meteohub,2013-12-06 05:01:00,
2013-12-06 00:02:00,52.7,52.3,29.85,SE,135,2.0,2.0,99,0.00,,,0.02,meteohub,2013-12-06 05:02:00,
2013-12-06 00:07:00,52.5,52.2,29.85,South,180,1.0,2.0,99,0.00,,,0.00,meteohub,2013-12-06 05:07:00,
2013-12-06 00:12:00,52.5,52.2,29.86,South,180,0.0,2.0,99,0.00,,,0.00,meteohub,2013-12-06 05:12:00,
2013-12-06 00:17:00,52.7,52.3,29.86,South,180,1.0,2.0,99,0.00,,,0.00,meteohub,2013-12-06 05:17:00,
2013-12-06 00:22:00,52.7,52.3,29.85,SE,135,2.0,2.0,99,0.00,,,0.00,meteohub,2013-12-06 05:22:00,
2013-12-06 00:27:00,52.3,52.0,29.84,South,180,2.0,2.0,99,0.00,,,0.00,meteohub,2013-12-06 05:27:00,
2013-12-06 00:32:00,52.3,52.0,29.85,South,180,1.0,2.0,99,0.00,,,0.00,meteohub,2013-12-06 05:32:00,
2013-12-06 00:37:00,52.5,52.2,29.84,South,180,2.0,2.0,99,0.00,,,0.00,meteohub,2013-12-06 05:37:00,
2013-12-06 00:42:00,52.5,52.2,29.84,South,180,1.0,2.0,99,0.00,,,0.00,meteohub,2013-12-06 05:42:00,
2013-12-06 00:47:00,52.5,52.2,29.83,South,180,2.0,2.0,99,0.00,,,0.00,meteohub,2013-12-06 05:47:00,
2013-12-06 00:52:00,52.3,52.0,29.83,South,180,2.0,2.0,99,0.00,,,0.00,meteohub,2013-12-06 05:52:00,
2013-12-06 00:57:00,52.3,52.0,29.83,SW,225,2.0,2.0,99,0.00,,,0.00,meteohub,2013-12-06 05:57:00,
2013-12-06 01:02:00,52.3,52.0,29.83,SW,225,0.0,2.0,99,0.00,,,0.00,meteohub,2013-12-06 06:02:00,
2013-12-06 01:07:00,52.3,52.0,29.83,SE,135,1.0,2.0,99,0.00,,,0.00,meteohub,2013-12-06 06:07:00,
2013-12-06 01:12:00,52.3,52.0,29.83,SE,135,0.0,2.0,99,0.00,,,0.00,meteohub,2013-12-06 06:12:00,
2013-12-06 01:17:00,52.3,52.0,29.83,SE,135,0.0,1.0,99,0.00,,,0.00,meteohub,2013-12-06 06:17:00,
2013-12-06 01:22:00,52.2,51.8,29.83,South,180,0.0,1.0,99,0.00,,,0.00,meteohub,2013-12-06 06:22:00,
2013-12-06 01:27:00,52.3,52.0,29.82,South,180,0.0,1.0,99,0.00,,,0.00,meteohub,2013-12-06 06:27:00,
2013-12-06 01:32:00,52.3,52.0,29.82,SW,225,0.0,1.0,99,0.00,,,0.00,meteohub,2013-12-06 06:32:00,
2013-12-06 01:37:00,52.3,52.0,29.82,SW,225,0.0,2.0,99,0.00,,,0.00,meteohub,2013-12-06 06:37:00,
2013-12-06 01:42:00,52.3,52.0,29.83,SW,225,0.0,2.0,99,0.00,,,0.00,meteohub,2013-12-06 06:42:00,
2013-12-06 01:47:00,52.3,52.0,29.82,South,180,1.0,2.0,99,0.00,,,0.00,meteohub,2013-12-06 06:47:00,
2013-12-06 01:52:00,52.3,52.0,29.81,SE,135,1.0,1.0,99,0.00,,,0.00,meteohub,2013-12-06 06:52:00,
2013-12-06 01:57:00,52.3,52.0,29.81,SE,135,2.0,2.0,99,0.00,,,0.00,meteohub,2013-12-06 06:57:00,
2013-12-06 02:02:00,52.5,52.2,29.81,South,180,2.0,2.0,99,0.00,,,0.00,meteohub,2013-12-06 07:02:00,
2013-12-06 02:07:00,52.5,52.2,29.81,South,180,2.0,3.0,99,0.00,,,0.00,meteohub,2013-12-06 07:07:00,
2013-12-06 02:12:00,52.3,52.0,29.81,South,180,2.0,3.0,99,0.00,,,0.00,meteohub,2013-12-06 07:12:00,
2013-12-06 02:17:00,52.3,52.0,29.81,South,180,2.0,3.0,99,0.00,,,0.00,meteohub,2013-12-06 07:17:00,
2013-12-06 02:22:00,52.2,51.8,29.80,South,180,2.0,2.0,99,0.00,,,0.00,meteohub,2013-12-06 07:22:00,
2013-12-06 02:27:00,52.2,51.8,29.80,South,180,2.0,2.0,99,0.00,,,0.00,meteohub,2013-12-06 07:27:00,
2013-12-06 02:32:00,52.2,51.8,29.81,South,180,0.0,2.0,99,0.00,,,0.00,meteohub,2013-12-06 07:32:00,
2013-12-06 02:37:00,52.2,51.8,29.81,South,180,0.0,2.0,99,0.00,,,0.00,meteohub,2013-12-06 07:37:00,
2013-12-06 02:42:00,52.2,51.8,29.81,SW,225,1.0,2.0,99,0.00,,,0.00,meteohub,2013-12-06 07:42:00,
2013-12-06 02:47:00,52.2,51.8,29.80,South,180,0.0,2.0,99,0.00,,,0.00,meteohub,2013-12-06 07:47:00,
2013-12-06 02:52:00,52.2,51.8,29.80,NE,45,0.0,1.0,99,0.00,,,0.00,meteohub,2013-12-06 07:52:00,
2013-12-06 02:57:00,52.2,51.8,29.81,NE,45,0.0,1.0,99,0.00,,,0.00,meteohub,2013-12-06 07:57:00,
2013-12-06 03:02:00,52.2,51.8,29.80,NE,45,0.0,1.0,99,0.00,,,0.00,meteohub,2013-12-06 08:02:00,
2013-12-06 03:07:00,52.0,51.6,29.81,North,0,2.0,2.0,99,0.01,,,0.00,meteohub,2013-12-06 08:07:00,
2013-12-06 03:12:00,52.0,51.6,29.81,SW,225,0.0,2.0,99,0.01,,,0.01,meteohub,2013-12-06 08:12:00,
2013-12-06 03:17:00,52.0,51.6,29.80,South,180,0.0,2.0,99,0.01,,,0.01,meteohub,2013-12-06 08:17:00,
2013-12-06 03:22:00,52.0,51.6,29.80,South,180,0.0,2.0,99,0.01,,,0.01,meteohub,2013-12-06 08:22:00,
2013-12-06 03:27:00,52.2,51.8,29.80,South,180,0.0,0.0,99,0.01,,,0.01,meteohub,2013-12-06 08:27:00,
2013-12-06 03:32:00,52.2,51.8,29.80,South,180,1.0,0.0,99,0.01,,,0.01,meteohub,2013-12-06 08:32:00,
2013-12-06 03:37:00,52.2,51.8,29.80,South,180,1.0,1.0,99,0.01,,,0.01,meteohub,2013-12-06 08:37:00,
2013-12-06 03:42:00,52.0,51.6,29.80,South,180,0.0,1.0,99,0.01,,,0.01,meteohub,2013-12-06 08:42:00,
2013-12-06 03:47:00,52.0,51.6,29.80,SSW,203,0.0,1.0,99,0.01,,,0.01,meteohub,2013-12-06 08:47:00,
2013-12-06 03:52:00,52.0,51.6,29.81,South,180,0.0,1.0,99,0.01,,,0.01,meteohub,2013-12-06 08:52:00,
2013-12-06 03:57:00,52.0,51.6,29.80,South,180,0.0,1.0,99,0.01,,,0.01,meteohub,2013-12-06 08:57:00,
2013-12-06 04:02:00,52.0,51.6,29.79,South,180,0.0,0.0,99,0.01,,,0.01,meteohub,2013-12-06 09:02:00,
2013-12-06 04:07:00,52.2,51.8,29.79,South,180,0.0,0.0,99,0.00,,,0.01,meteohub,2013-12-06 09:07:00,
2013-12-06 04:12:00,52.2,51.8,29.79,South,180,0.0,0.0,99,0.00,,,0.01,meteohub,2013-12-06 09:12:00,
2013-12-06 04:17:00,52.2,51.8,29.79,South,180,1.0,0.0,99,0.00,,,0.01,meteohub,2013-12-06 09:17:00,
2013-12-06 04:22:00,52.2,51.8,29.80,South,180,0.0,1.0,99,0.00,,,0.01,meteohub,2013-12-06 09:22:00,
2013-12-06 04:27:00,52.2,51.8,29.80,South,180,0.0,1.0,99,0.00,,,0.01,meteohub,2013-12-06 09:27:00,
2013-12-06 04:32:00,52.2,51.8,29.80,South,180,0.0,1.0,99,0.00,,,0.01,meteohub,2013-12-06 09:32:00,
2013-12-06 04:37:00,52.2,51.8,29.79,South,180,0.0,0.0,99,0.00,,,0.01,meteohub,2013-12-06 09:37:00,
2013-12-06 04:42:00,52.2,51.8,29.79,South,180,0.0,1.0,99,0.00,,,0.01,meteohub,2013-12-06 09:42:00,
2013-12-06 04:47:00,52.2,51.8,29.78,South,180,0.0,1.0,99,0.00,,,0.01,meteohub,2013-12-06 09:47:00,
2013-12-06 04:52:00,52.2,51.8,29.79,South,180,0.0,1.0,99,0.00,,,0.01,meteohub,2013-12-06 09:52:00,
2013-12-06 04:57:00,52.3,52.0,29.79,East,90,0.0,0.0,99,0.00,,,0.01,meteohub,2013-12-06 09:57:00,
2013-12-06 05:02:00,52.3,52.0,29.79,SW,225,0.0,0.0,99,0.00,,,0.01,meteohub,2013-12-06 10:02:00,
2013-12-06 05:07:00,52.3,52.0,29.79,South,180,0.0,0.0,99,0.00,,,0.01,meteohub,2013-12-06 10:07:00,
2013-12-06 05:12:00,52.3,52.0,29.79,NW,315,1.0,0.0,99,0.00,,,0.01,meteohub,2013-12-06 10:12:00,
2013-12-06 05:18:00,52.3,52.0,29.80,SW,225,1.0,2.0,99,0.00,,,0.01,meteohub,2013-12-06 10:18:00,
2013-12-06 05:23:00,52.3,52.0,29.80,South,180,2.0,2.0,99,0.00,,,0.01,meteohub,2013-12-06 10:23:00,
2013-12-06 05:28:00,52.2,51.8,29.80,South,180,2.0,2.0,99,0.00,,,0.01,meteohub,2013-12-06 10:28:00,
2013-12-06 05:33:00,52.2,51.8,29.79,South,180,0.0,2.0,99,0.00,,,0.01,meteohub,2013-12-06 10:33:00,
2013-12-06 05:38:00,52.2,51.8,29.78,South,180,0.0,2.0,99,0.00,,,0.01,meteohub,2013-12-06 10:38:00,
2013-12-06 05:43:00,52.2,51.8,29.80,SW,225,0.0,2.0,99,0.00,,,0.01,meteohub,2013-12-06 10:43:00,
2013-12-06 05:48:00,52.2,51.8,29.80,South,180,1.0,2.0,99,0.00,,,0.01,meteohub,2013-12-06 10:48:00,
2013-12-06 05:53:00,52.2,51.8,29.81,South,180,0.0,2.0,99,0.00,,,0.01,meteohub,2013-12-06 10:53:00,
2013-12-06 05:58:00,52.2,51.8,29.80,SW,225,0.0,2.0,99,0.00,,,0.01,meteohub,2013-12-06 10:58:00,
2013-12-06 06:03:00,52.2,51.8,29.80,SW,225,0.0,2.0,99,0.00,,,0.01,meteohub,2013-12-06 11:03:00,
2013-12-06 06:08:00,52.2,51.8,29.80,West,270,1.0,0.0,99,0.00,,,0.01,meteohub,2013-12-06 11:08:00,
2013-12-06 06:13:00,52.2,51.8,29.81,NW,315,2.0,2.0,99,0.00,,,0.01,meteohub,2013-12-06 11:13:00,
2013-12-06 06:18:00,52.2,51.8,29.82,NW,315,2.0,2.0,99,0.00,,,0.01,meteohub,2013-12-06 11:18:00,
2013-12-06 06:23:00,52.2,51.8,29.83,West,270,0.0,2.0,99,0.00,,,0.01,meteohub,2013-12-06 11:23:00,
2013-12-06 06:28:00,52.5,52.2,29.82,NW,315,2.0,2.0,99,0.00,,,0.01,meteohub,2013-12-06 11:28:00,
2013-12-06 06:33:00,52.5,52.2,29.83,NW,315,3.0,3.0,99,0.01,,,0.02,meteohub,2013-12-06 11:33:00,
2013-12-06 06:38:00,51.8,51.4,29.84,NW,315,3.0,4.0,99,0.01,,,0.02,meteohub,2013-12-06 11:38:00,
2013-12-06 06:43:00,50.9,50.5,29.85,NW,315,4.0,5.0,99,0.01,,,0.02,meteohub,2013-12-06 11:43:00,
2013-12-06 06:48:00,49.5,49.3,29.85,NW,315,6.0,6.0,99,0.01,,,0.02,meteohub,2013-12-06 11:48:00,
2013-12-06 06:53:00,48.4,48.2,29.86,NW,315,4.0,7.0,99,0.01,,,0.02,meteohub,2013-12-06 11:53:00,
2013-12-06 06:58:00,47.8,47.7,29.86,NW,315,4.0,7.0,99,0.01,,,0.02,meteohub,2013-12-06 11:58:00,
2013-12-06 07:03:00,47.3,47.1,29.85,North,0,3.0,7.0,99,0.01,,,0.02,meteohub,2013-12-06 12:03:00,
2013-12-06 07:08:00,46.8,46.6,29.85,North,0,5.0,5.0,99,0.01,,,0.02,meteohub,2013-12-06 12:08:00,
2013-12-06 07:14:00,46.4,46.2,29.85,NW,315,7.0,7.0,99,0.01,,,0.02,meteohub,2013-12-06 12:14:00,
2013-12-06 07:18:00,46.0,45.9,29.86,North,0,3.0,8.0,99,0.01,,,0.02,meteohub,2013-12-06 12:18:00,
2013-12-06 07:24:00,45.7,45.5,29.86,NW,315,4.0,8.0,99,0.01,,,0.02,meteohub,2013-12-06 12:24:00,
2013-12-06 07:29:00,45.5,45.3,29.87,NW,315,4.0,8.0,99,0.01,,,0.02,meteohub,2013-12-06 12:29:00,
2013-12-06 07:34:00,45.3,45.1,29.88,North,0,4.0,7.0,99,0.00,,,0.02,meteohub,2013-12-06 12:34:00,
2013-12-06 07:39:00,45.1,45.0,29.87,West,270,3.0,7.0,99,0.00,,,0.02,meteohub,2013-12-06 12:39:00,
2013-12-06 07:44:00,45.0,44.8,29.87,North,0,2.0,7.0,99,0.00,,,0.02,meteohub,2013-12-06 12:44:00,
2013-12-06 07:49:00,45.0,44.8,29.87,NNE,23,4.0,6.0,99,0.00,,,0.02,meteohub,2013-12-06 12:49:00,
2013-12-06 07:54:00,44.8,44.6,29.88,West,270,4.0,6.0,99,0.00,,,0.02,meteohub,2013-12-06 12:54:00,
2013-12-06 07:59:00,44.8,44.6,29.88,North,0,4.0,6.0,99,0.00,,,0.02,meteohub,2013-12-06 12:59:00,
2013-12-06 08:04:00,44.8,44.6,29.88,North,0,3.0,6.0,99,0.00,,,0.02,meteohub,2013-12-06 13:04:00,
2013-12-06 08:09:00,44.8,44.6,29.88,NW,315,4.0,6.0,99,0.00,,,0.02,meteohub,2013-12-06 13:09:00,
2013-12-06 08:14:00,44.6,44.4,29.88,NW,315,3.0,7.0,99,0.00,,,0.02,meteohub,2013-12-06 13:14:00,
2013-12-06 08:19:00,44.6,44.4,29.89,North,0,3.0,7.0,99,0.00,,,0.02,meteohub,2013-12-06 13:19:00,
2013-12-06 08:24:00,44.6,44.4,29.88,WNW,293,4.0,7.0,99,0.00,,,0.02,meteohub,2013-12-06 13:24:00,
2013-12-06 08:29:00,44.4,44.2,29.89,North,0,4.0,7.0,99,0.01,,,0.04,meteohub,2013-12-06 13:29:00,
2013-12-06 08:34:00,44.2,44.1,29.88,North,0,2.0,5.0,99,0.01,,,0.04,meteohub,2013-12-06 13:34:00,
2013-12-06 08:38:00,44.1,43.9,29.88,NW,315,6.0,6.0,99,0.01,,,0.04,meteohub,2013-12-06 13:38:00,
2013-12-06 08:44:00,44.1,43.9,29.88,NE,45,3.0,6.0,99,0.01,,,0.04,meteohub,2013-12-06 13:44:00,
2013-12-06 08:49:00,43.9,43.7,29.88,NW,315,4.0,6.0,99,0.01,,,0.04,meteohub,2013-12-06 13:49:00,
2013-12-06 08:54:00,43.9,43.7,29.88,NW,315,4.0,6.0,99,0.01,,,0.04,meteohub,2013-12-06 13:54:00,
2013-12-06 08:59:00,43.9,43.7,29.90,North,0,2.0,6.0,99,0.01,,,0.04,meteohub,2013-12-06 13:59:00,
2013-12-06 09:04:00,43.9,43.7,29.91,NW,315,4.0,6.0,99,0.01,,,0.04,meteohub,2013-12-06 14:04:00,
2013-12-06 09:09:00,43.9,43.7,29.91,North,0,4.0,6.0,99,0.01,,,0.04,meteohub,2013-12-06 14:09:00,
2013-12-06 09:14:00,43.9,43.7,29.90,North,0,4.0,4.0,99,0.01,,,0.04,meteohub,2013-12-06 14:14:00,
2013-12-06 09:19:00,43.7,43.5,29.90,North,0,8.0,8.0,99,0.01,,,0.04,meteohub,2013-12-06 14:19:00,
2013-12-06 09:24:00,43.5,43.3,29.91,NW,315,4.0,8.0,99,0.02,,,0.05,meteohub,2013-12-06 14:24:00,
2013-12-06 09:29:00,43.5,43.3,29.91,NNW,338,4.0,8.0,99,0.01,,,0.05,meteohub,2013-12-06 14:29:00,
2013-12-06 09:34:00,43.2,43.0,29.91,NW,315,10.0,10.0,99,0.01,,,0.05,meteohub,2013-12-06 14:34:00,
2013-12-06 09:39:00,43.2,43.0,29.92,NW,315,5.0,7.0,99,0.01,,,0.05,meteohub,2013-12-06 14:39:00,
2013-12-06 09:44:00,42.8,42.6,29.91,West,270,11.0,11.0,99,0.01,,,0.05,meteohub,2013-12-06 14:44:00,
2013-12-06 09:49:00,42.8,42.6,29.91,North,0,7.0,10.0,99,0.01,,,0.05,meteohub,2013-12-06 14:49:00,
2013-12-06 09:54:00,42.4,42.3,29.91,North,0,8.0,11.0,99,0.01,,,0.05,meteohub,2013-12-06 14:54:00,
2013-12-06 09:59:00,42.4,42.3,29.92,North,0,6.0,11.0,99,0.01,,,0.05,meteohub,2013-12-06 14:59:00,
2013-12-06 10:04:00,42.3,42.1,29.91,North,0,6.0,11.0,99,0.01,,,0.05,meteohub,2013-12-06 15:04:00,
2013-12-06 10:09:00,42.3,42.1,29.92,NE,45,6.0,11.0,99,0.01,,,0.05,meteohub,2013-12-06 15:09:00,
2013-12-06 10:14:00,42.3,42.1,29.92,North,0,4.0,11.0,99,0.01,,,0.05,meteohub,2013-12-06 15:14:00,
2013-12-06 10:19:00,42.3,42.1,29.92,North,0,3.0,9.0,99,0.00,,,0.05,meteohub,2013-12-06 15:19:00,
2013-12-06 10:24:00,42.1,41.9,29.91,NW,315,8.0,9.0,99,0.00,,,0.05,meteohub,2013-12-06 15:24:00,
2013-12-06 10:29:00,42.3,42.1,29.93,North,0,5.0,6.0,99,0.00,,,0.05,meteohub,2013-12-06 15:29:00,
2013-12-06 10:34:00,42.3,42.1,29.92,North,0,7.0,8.0,99,0.00,,,0.05,meteohub,2013-12-06 15:34:00,
2013-12-06 10:39:00,42.3,42.1,29.91,NW,315,5.0,8.0,99,0.00,,,0.05,meteohub,2013-12-06 15:39:00,
2013-12-06 10:44:00,42.4,42.3,29.92,SE,135,4.0,7.0,99,0.00,,,0.05,meteohub,2013-12-06 15:44:00,
2013-12-06 10:49:00,42.4,42.3,29.92,NW,315,4.0,7.0,99,0.00,,,0.05,meteohub,2013-12-06 15:49:00,
2013-12-06 10:54:00,42.4,42.3,29.91,NE,45,3.0,7.0,99,0.00,,,0.05,meteohub,2013-12-06 15:54:00,
2013-12-06 11:00:00,42.4,42.3,29.92,North,0,4.0,9.0,99,0.00,,,0.05,meteohub,2013-12-06 16:00:00,
2013-12-06 11:05:00,42.4,42.3,29.91,NE,45,3.0,9.0,99,0.00,,,0.05,meteohub,2013-12-06 16:05:00,
2013-12-06 11:09:00,42.4,42.3,29.92,NW,315,4.0,9.0,99,0.00,,,0.05,meteohub,2013-12-06 16:09:00,
2013-12-06 11:14:00,42.3,42.1,29.91,North,0,3.0,4.0,99,0.00,,,0.05,meteohub,2013-12-06 16:14:00,
2013-12-06 11:20:00,42.1,41.9,29.91,North,0,2.0,4.0,99,0.02,,,0.07,meteohub,2013-12-06 16:20:00,
2013-12-06 11:25:00,41.9,41.7,29.91,West,270,2.0,5.0,99,0.02,,,0.07,meteohub,2013-12-06 16:25:00,
2013-12-06 11:30:00,41.7,41.5,29.91,NW,315,4.0,5.0,99,0.02,,,0.07,meteohub,2013-12-06 16:30:00,
2013-12-06 11:35:00,41.7,41.5,29.92,NW,315,2.0,5.0,99,0.02,,,0.07,meteohub,2013-12-06 16:35:00,
2013-12-06 11:40:00,41.7,41.5,29.93,NW,315,3.0,4.0,99,0.02,,,0.07,meteohub,2013-12-06 16:40:00,
2013-12-06 11:45:00,41.9,41.7,29.92,North,0,3.0,6.0,99,0.02,,,0.07,meteohub,2013-12-06 16:45:00,
2013-12-06 11:50:00,41.7,41.5,29.93,NW,315,3.0,6.0,99,0.02,,,0.07,meteohub,2013-12-06 16:50:00,
2013-12-06 11:55:00,41.7,41.5,29.93,North,0,4.0,4.0,99,0.02,,,0.07,meteohub,2013-12-06 16:55:00,
2013-12-06 12:00:00,41.7,41.5,29.93,NW,315,2.0,4.0,99,0.02,,,0.07,meteohub,2013-12-06 17:00:00,
2013-12-06 12:05:00,41.7,41.5,29.93,North,0,4.0,4.0,99,0.02,,,0.07,meteohub,2013-12-06 17:05:00,
2013-12-06 12:10:00,41.7,41.5,29.93,NW,315,2.0,4.0,99,0.02,,,0.07,meteohub,2013-12-06 17:10:00,
2013-12-06 12:15:00,41.5,41.4,29.93,North,0,4.0,4.0,99,0.01,,,0.07,meteohub,2013-12-06 17:15:00,
2013-12-06 12:20:00,41.5,41.4,29.92,North,0,2.0,6.0,99,0.00,,,0.07,meteohub,2013-12-06 17:20:00,
2013-12-06 12:25:00,41.5,41.4,29.91,West,270,7.0,7.0,99,0.01,,,0.08,meteohub,2013-12-06 17:25:00,
2013-12-06 12:30:00,41.5,41.4,29.92,NNW,338,3.0,6.0,99,0.01,,,0.08,meteohub,2013-12-06 17:30:00,
2013-12-06 12:35:00,41.5,41.4,29.93,NW,315,2.0,7.0,99,0.01,,,0.08,meteohub,2013-12-06 17:35:00,
2013-12-06 12:40:00,41.5,41.4,29.92,North,0,3.0,7.0,99,0.01,,,0.08,meteohub,2013-12-06 17:40:00,
2013-12-06 12:45:00,41.5,41.4,29.92,NW,315,4.0,5.0,99,0.01,,,0.08,meteohub,2013-12-06 17:45:00,
2013-12-06 12:50:00,41.5,41.4,29.93,NW,315,3.0,4.0,99,0.01,,,0.08,meteohub,2013-12-06 17:50:00,
2013-12-06 12:55:00,41.5,41.4,29.94,North,0,2.0,5.0,99,0.01,,,0.08,meteohub,2013-12-06 17:55:00,
2013-12-06 13:00:00,41.7,41.5,29.94,NW,315,3.0,5.0,99,0.01,,,0.08,meteohub,2013-12-06 18:00:00,
2013-12-06 13:05:00,41.9,41.7,29.94,NW,315,4.0,5.0,99,0.01,,,0.08,meteohub,2013-12-06 18:05:00,
2013-12-06 13:10:00,41.9,41.7,29.93,NW,315,5.0,5.0,99,0.01,,,0.08,meteohub,2013-12-06 18:10:00,
2013-12-06 13:15:00,42.1,41.9,29.92,NW,315,3.0,5.0,99,0.01,,,0.08,meteohub,2013-12-06 18:15:00,
2013-12-06 13:20:00,41.9,41.7,29.91,North,0,3.0,5.0,99,0.01,,,0.08,meteohub,2013-12-06 18:20:00,
2013-12-06 13:25:00,41.9,41.7,29.91,NW,315,3.0,5.0,99,0.00,,,0.08,meteohub,2013-12-06 18:25:00,
2013-12-06 13:30:00,42.1,41.9,29.91,North,0,4.0,7.0,99,0.00,,,0.08,meteohub,2013-12-06 18:30:00,
2013-12-06 13:35:00,42.1,41.9,29.91,NE,45,2.0,7.0,99,0.00,,,0.08,meteohub,2013-12-06 18:35:00,
2013-12-06 13:40:00,42.1,41.9,29.92,North,0,3.0,7.0,99,0.00,,,0.08,meteohub,2013-12-06 18:40:00,
2013-12-06 13:45:00,42.1,41.9,29.92,NW,315,3.0,5.0,99,0.00,,,0.08,meteohub,2013-12-06 18:45:00,
2013-12-06 13:50:00,42.1,41.9,29.93,North,0,2.0,6.0,99,0.00,,,0.08,meteohub,2013-12-06 18:50:00,
2013-12-06 13:55:00,42.1,41.9,29.92,North,0,3.0,6.0,99,0.00,,,0.08,meteohub,2013-12-06 18:55:00,
2013-12-06 14:00:00,42.1,41.9,29.92,North,0,4.0,4.0,99,0.00,,,0.08,meteohub,2013-12-06 19:00:00,
2013-12-06 14:05:00,42.1,41.9,29.92,West,270,3.0,6.0,99,0.00,,,0.08,meteohub,2013-12-06 19:05:00,
2013-12-06 14:10:00,42.1,41.9,29.92,West,270,2.0,6.0,99,0.00,,,0.08,meteohub,2013-12-06 19:10:00,
2013-12-06 14:15:00,42.3,42.1,29.92,NW,315,2.0,4.0,99,0.00,,,0.08,meteohub,2013-12-06 19:15:00,
2013-12-06 14:20:00,42.3,42.1,29.93,North,0,3.0,4.0,99,0.00,,,0.08,meteohub,2013-12-06 19:20:00,
2013-12-06 14:25:00,42.3,42.1,29.92,North,0,1.0,3.0,99,0.00,,,0.08,meteohub,2013-12-06 19:25:00,
2013-12-06 14:30:00,42.3,42.1,29.93,NW,315,2.0,3.0,99,0.00,,,0.08,meteohub,2013-12-06 19:30:00,
2013-12-06 14:35:00,42.3,42.1,29.93,NNW,338,4.0,4.0,99,0.00,,,0.08,meteohub,2013-12-06 19:35:00,
2013-12-06 14:40:00,42.4,42.3,29.93,NNW,338,2.0,4.0,99,0.00,,,0.08,meteohub,2013-12-06 19:40:00,
2013-12-06 14:45:00,42.4,42.3,29.92,NW,315,2.0,4.0,99,0.00,,,0.08,meteohub,2013-12-06 19:45:00,
2013-12-06 14:50:00,42.4,42.3,29.93,North,0,2.0,4.0,99,0.00,,,0.08,meteohub,2013-12-06 19:50:00,
2013-12-06 14:55:00,42.4,42.3,29.92,North,0,1.0,4.0,99,0.00,,,0.08,meteohub,2013-12-06 19:55:00,
2013-12-06 15:00:00,42.4,42.3,29.93,NW,315,2.0,4.0,99,0.00,,,0.08,meteohub,2013-12-06 20:00:00,
2013-12-06 15:05:00,42.4,42.3,29.93,NW,315,1.0,4.0,99,0.00,,,0.08,meteohub,2013-12-06 20:05:00,
2013-12-06 15:10:00,42.4,42.3,29.93,North,0,1.0,4.0,99,0.00,,,0.08,meteohub,2013-12-06 20:10:00,
2013-12-06 15:15:00,42.4,42.3,29.93,West,270,1.0,3.0,99,0.00,,,0.08,meteohub,2013-12-06 20:15:00,
2013-12-06 15:20:00,42.4,42.3,29.94,NW,315,1.0,3.0,99,0.00,,,0.08,meteohub,2013-12-06 20:20:00,
2013-12-06 15:25:00,42.4,42.3,29.94,NW,315,2.0,3.0,99,0.00,,,0.08,meteohub,2013-12-06 20:25:00,
2013-12-06 15:30:00,42.3,42.1,29.96,North,0,2.0,2.0,99,0.00,,,0.08,meteohub,2013-12-06 20:30:00,
2013-12-06 15:35:00,42.1,41.9,29.96,NW,315,2.0,3.0,99,0.00,,,0.08,meteohub,2013-12-06 20:35:00,
2013-12-06 15:40:00,41.9,41.7,29.95,North,0,2.0,3.0,99,0.00,,,0.08,meteohub,2013-12-06 20:40:00,
2013-12-06 15:45:00,41.7,41.5,29.96,NW,315,2.0,3.0,99,0.00,,,0.08,meteohub,2013-12-06 20:45:00,
2013-12-06 15:50:00,41.5,41.4,29.96,NW,315,2.0,3.0,99,0.00,,,0.09,meteohub,2013-12-06 20:50:00,
2013-12-06 15:55:00,41.2,41.0,29.95,North,0,2.0,2.0,99,0.01,,,0.09,meteohub,2013-12-06 20:55:00,
2013-12-06 16:00:00,41.0,40.8,29.95,North,0,4.0,4.0,99,0.01,,,0.09,meteohub,2013-12-06 21:00:00,
2013-12-06 16:05:00,40.8,40.6,29.95,North,0,1.0,4.0,99,0.01,,,0.09,meteohub,2013-12-06 21:05:00,
2013-12-06 16:10:00,40.8,40.6,29.94,North,0,3.0,4.0,99,0.01,,,0.09,meteohub,2013-12-06 21:10:00,
2013-12-06 16:15:00,40.6,40.5,29.94,North,0,2.0,4.0,99,0.01,,,0.09,meteohub,2013-12-06 21:15:00,
2013-12-06 16:20:00,40.5,40.3,29.93,North,0,2.0,4.0,99,0.01,,,0.09,meteohub,2013-12-06 21:20:00,
2013-12-06 16:25:00,40.3,40.1,29.94,NW,315,1.0,3.0,99,0.01,,,0.09,meteohub,2013-12-06 21:25:00,
2013-12-06 16:30:00,40.3,40.1,29.94,NW,315,3.0,3.0,99,0.01,,,0.09,meteohub,2013-12-06 21:30:00,
2013-12-06 16:35:00,40.1,39.9,29.94,NW,315,2.0,3.0,99,0.01,,,0.09,meteohub,2013-12-06 21:35:00,
2013-12-06 16:40:00,40.3,40.1,29.94,North,0,2.0,3.0,99,0.01,,,0.09,meteohub,2013-12-06 21:40:00,
2013-12-06 16:45:00,40.1,39.9,29.94,NW,315,2.0,3.0,99,0.01,,,0.09,meteohub,2013-12-06 21:45:00,
2013-12-06 16:50:00,40.1,39.9,29.95,NW,315,2.0,3.0,99,0.00,,,0.09,meteohub,2013-12-06 21:50:00,
2013-12-06 16:55:00,40.1,39.9,29.96,West,270,3.0,4.0,99,0.00,,,0.09,meteohub,2013-12-06 21:55:00,
2013-12-06 17:00:00,40.1,39.9,29.97,NW,315,3.0,4.0,99,0.00,,,0.09,meteohub,2013-12-06 22:00:00,
2013-12-06 17:05:00,40.1,39.9,29.96,NW,315,2.0,4.0,99,0.00,,,0.09,meteohub,2013-12-06 22:05:00,
2013-12-06 17:10:00,40.1,39.9,29.97,NW,315,2.0,4.0,99,0.00,,,0.09,meteohub,2013-12-06 22:10:00,
2013-12-06 17:15:00,40.1,39.9,29.97,North,0,2.0,4.0,99,0.00,,,0.09,meteohub,2013-12-06 22:15:00,
2013-12-06 17:20:00,39.9,39.7,29.99,North,0,2.0,3.0,99,0.00,,,0.09,meteohub,2013-12-06 22:20:00,
2013-12-06 17:25:00,39.9,39.7,29.98,NW,315,3.0,4.0,99,0.00,,,0.09,meteohub,2013-12-06 22:25:00,
2013-12-06 17:30:00,39.9,39.7,29.97,NW,315,3.0,4.0,99,0.00,,,0.09,meteohub,2013-12-06 22:30:00,
2013-12-06 17:35:00,39.9,39.7,29.96,North,0,3.0,4.0,99,0.00,,,0.09,meteohub,2013-12-06 22:35:00,
2013-12-06 17:40:00,39.9,39.7,29.96,NW,315,4.0,5.0,99,0.00,,,0.09,meteohub,2013-12-06 22:40:00,
2013-12-06 17:45:00,40.1,39.9,29.97,North,0,2.0,5.0,99,0.00,,,0.09,meteohub,2013-12-06 22:45:00,
2013-12-06 17:50:00,40.1,39.9,29.97,West,270,4.0,5.0,99,0.00,,,0.09,meteohub,2013-12-06 22:50:00,
2013-12-06 17:55:00,39.9,39.7,29.97,NW,315,3.0,5.0,99,0.01,,,0.11,meteohub,2013-12-06 22:55:00,
2013-12-06 18:00:00,39.9,39.7,29.98,North,0,4.0,8.0,99,0.01,,,0.11,meteohub,2013-12-06 23:00:00,
2013-12-06 18:05:00,39.7,39.6,29.96,NW,315,3.0,8.0,99,0.01,,,0.11,meteohub,2013-12-06 23:05:00,
2013-12-06 18:10:00,39.4,39.2,29.97,North,0,4.0,8.0,99,0.01,,,0.11,meteohub,2013-12-06 23:10:00,
2013-12-06 18:15:00,39.2,39.0,29.98,NW,315,4.0,8.0,99,0.01,,,0.11,meteohub,2013-12-06 23:15:00,
2013-12-06 18:20:00,39.2,39.0,29.97,North,0,2.0,5.0,99,0.01,,,0.11,meteohub,2013-12-06 23:20:00,
2013-12-06 18:25:00,39.0,38.8,29.98,North,0,4.0,6.0,99,0.01,,,0.11,meteohub,2013-12-06 23:25:00,
2013-12-06 18:30:00,38.8,38.7,29.99,NNW,338,3.0,6.0,99,0.01,,,0.11,meteohub,2013-12-06 23:30:00,
2013-12-06 18:35:00,38.8,38.7,30.00,NW,315,3.0,6.0,99,0.01,,,0.11,meteohub,2013-12-06 23:35:00,
2013-12-06 18:40:00,38.7,38.5,30.00,NW,315,3.0,6.0,99,0.01,,,0.11,meteohub,2013-12-06 23:40:00,
2013-12-06 18:45:00,38.5,38.3,30.01,NW,315,4.0,6.0,99,0.01,,,0.11,meteohub,2013-12-06 23:45:00,
2013-12-06 18:50:00,38.3,38.1,30.02,NW,315,4.0,5.0,99,0.01,,,0.11,meteohub,2013-12-06 23:50:00,
2013-12-06 18:55:00,37.9,37.8,30.02,NW,315,4.0,10.0,99,0.01,,,0.12,meteohub,2013-12-06 23:55:00,
2013-12-06 19:00:00,37.6,37.4,30.01,NW,315,4.0,10.0,99,0.01,,,0.12,meteohub,2013-12-07 00:00:00,
2013-12-06 19:05:00,37.2,37.0,30.01,North,0,5.0,10.0,99,0.02,,,0.13,meteohub,2013-12-07 00:05:00,
2013-12-06 19:10:00,37.0,36.9,30.01,North,0,4.0,10.0,99,0.02,,,0.13,meteohub,2013-12-07 00:10:00,
2013-12-06 19:15:00,36.9,36.7,30.01,North,0,4.0,7.0,99,0.02,,,0.13,meteohub,2013-12-07 00:15:00,
2013-12-06 19:20:00,36.9,36.7,30.02,NW,315,4.0,6.0,99,0.02,,,0.13,meteohub,2013-12-07 00:20:00,
2013-12-06 19:25:00,36.9,36.7,30.01,NW,315,2.0,6.0,99,0.02,,,0.13,meteohub,2013-12-07 00:25:00,
2013-12-06 19:30:00,36.7,36.5,30.01,NNW,338,4.0,6.0,99,0.02,,,0.13,meteohub,2013-12-07 00:30:00,
2013-12-06 19:35:00,36.5,36.3,30.01,North,0,3.0,5.0,99,0.04,,,0.14,meteohub,2013-12-07 00:35:00,
2013-12-06 19:40:00,36.5,36.3,30.03,NW,315,2.0,4.0,99,0.04,,,0.14,meteohub,2013-12-07 00:40:00,
2013-12-06 19:45:00,36.5,36.3,30.02,North,0,2.0,4.0,99,0.05,,,0.15,meteohub,2013-12-07 00:45:00,
2013-12-06 19:50:00,36.3,36.1,30.01,NW,315,3.0,3.0,99,0.04,,,0.15,meteohub,2013-12-07 00:50:00,
2013-12-06 19:55:00,36.1,36.0,30.01,North,0,2.0,4.0,99,0.05,,,0.17,meteohub,2013-12-07 00:55:00,
2013-12-06 20:00:00,36.1,36.0,30.00,NW,315,3.0,4.0,99,0.05,,,0.17,meteohub,2013-12-07 01:00:00,
2013-12-06 20:05:00,36.0,35.8,30.01,ESE,113,3.0,4.0,99,0.05,,,0.18,meteohub,2013-12-07 01:05:00,
2013-12-06 20:10:00,36.0,35.8,30.02,NW,315,3.0,4.0,99,0.06,,,0.19,meteohub,2013-12-07 01:10:00,
2013-12-06 20:15:00,36.0,35.8,30.03,NNW,338,4.0,4.0,99,0.06,,,0.19,meteohub,2013-12-07 01:15:00,
2013-12-06 20:20:00,35.8,35.6,30.03,North,0,4.0,4.0,99,0.08,,,0.21,meteohub,2013-12-07 01:20:00,
2013-12-06 20:25:00,35.8,35.6,30.03,North,0,3.0,5.0,99,0.09,,,0.22,meteohub,2013-12-07 01:25:00,
2013-12-06 20:30:00,35.8,35.6,30.04,NW,315,3.0,5.0,99,0.11,,,0.24,meteohub,2013-12-07 01:30:00,
2013-12-06 20:35:00,35.6,35.4,30.03,NNE,23,7.0,7.0,99,0.12,,,0.26,meteohub,2013-12-07 01:35:00,
2013-12-06 20:40:00,35.6,35.4,30.04,West,270,2.0,8.0,99,0.13,,,0.27,meteohub,2013-12-07 01:40:00,
2013-12-06 20:45:00,35.6,35.4,30.04,NNW,338,2.0,8.0,99,0.13,,,0.28,meteohub,2013-12-07 01:45:00,
2013-12-06 20:50:00,35.6,35.4,30.05,NW,315,4.0,8.0,99,0.14,,,0.30,meteohub,2013-12-07 01:50:00,
2013-12-06 20:55:00,35.6,35.4,30.05,North,0,3.0,5.0,99,0.15,,,0.32,meteohub,2013-12-07 01:55:00,
2013-12-06 21:00:00,35.6,35.4,30.04,NW,315,3.0,4.0,99,0.15,,,0.32,meteohub,2013-12-07 02:00:00,
2013-12-06 21:05:00,35.6,35.4,30.04,NW,315,2.0,4.0,99,0.17,,,0.34,meteohub,2013-12-07 02:05:00,
2013-12-06 21:10:00,35.6,35.4,30.05,West,270,2.0,4.0,99,0.15,,,0.34,meteohub,2013-12-07 02:10:00,
2013-12-06 21:15:00,35.6,35.4,30.04,West,270,3.0,4.0,99,0.15,,,0.34,meteohub,2013-12-07 02:15:00,
2013-12-06 21:20:00,35.6,35.4,30.02,NE,45,5.0,5.0,99,0.14,,,0.35,meteohub,2013-12-07 02:20:00,
2013-12-06 21:25:00,35.4,35.2,29.99,NW,315,3.0,5.0,99,0.13,,,0.37,meteohub,2013-12-07 02:25:00,
2013-12-06 21:30:00,35.2,35.1,30.00,NW,315,3.0,5.0,99,0.12,,,0.37,meteohub,2013-12-07 02:30:00,
2013-12-06 21:35:00,35.2,35.1,29.98,North,0,1.0,4.0,99,0.11,,,0.37,meteohub,2013-12-07 02:35:00,
2013-12-06 21:40:00,35.2,35.1,29.99,NE,45,2.0,4.0,99,0.09,,,0.37,meteohub,2013-12-07 02:40:00,
2013-12-06 21:45:00,35.1,34.9,30.00,North,0,2.0,4.0,99,0.09,,,0.38,meteohub,2013-12-07 02:45:00,
2013-12-06 21:50:00,35.2,35.1,30.01,NW,315,2.0,4.0,99,0.08,,,0.39,meteohub,2013-12-07 02:50:00,
2013-12-06 21:55:00,35.2,35.1,30.02,NW,315,3.0,4.0,99,0.07,,,0.39,meteohub,2013-12-07 02:55:00,
2013-12-06 22:00:00,35.2,35.1,30.03,NW,315,3.0,3.0,99,0.06,,,0.39,meteohub,2013-12-07 03:00:00,
2013-12-06 22:05:00,35.2,35.1,30.04,West,270,4.0,4.0,99,0.06,,,0.40,meteohub,2013-12-07 03:05:00,
2013-12-06 22:10:00,35.1,34.9,30.04,West,270,2.0,4.0,99,0.07,,,0.41,meteohub,2013-12-07 03:10:00,
2013-12-06 22:15:00,35.1,34.9,30.02,West,270,2.0,4.0,99,0.07,,,0.41,meteohub,2013-12-07 03:15:00,
2013-12-06 22:20:00,35.2,35.1,30.03,NW,315,3.0,4.0,99,0.07,,,0.43,meteohub,2013-12-07 03:20:00,
2013-12-06 22:25:00,35.1,34.9,30.02,NW,315,2.0,4.0,99,0.06,,,0.43,meteohub,2013-12-07 03:25:00,
2013-12-06 22:30:00,35.2,35.1,30.03,NW,315,4.0,4.0,99,0.07,,,0.44,meteohub,2013-12-07 03:30:00,
2013-12-06 22:35:00,35.1,34.9,30.03,North,0,3.0,6.0,99,0.07,,,0.44,meteohub,2013-12-07 03:35:00,
2013-12-06 22:40:00,35.1,34.9,30.02,North,-999,-999.0,6.0,99,0.07,,,0.44,meteohub,2013-12-07 03:40:00,
2013-12-06 22:45:00,35.1,34.9,30.02,North,0,5.0,6.0,99,0.07,,,0.45,meteohub,2013-12-07 03:45:00,
2013-12-06 22:50:00,35.1,34.9,30.02,North,0,2.0,5.0,99,0.06,,,0.45,meteohub,2013-12-07 03:50:00,
2013-12-06 22:55:00,35.1,34.9,30.01,NW,315,2.0,5.0,99,0.06,,,0.45,meteohub,2013-12-07 03:55:00,
2013-12-06 23:00:00,35.1,34.9,30.02,NW,315,2.0,5.0,99,0.06,,,0.46,meteohub,2013-12-07 04:00:00,
2013-12-06 23:05:00,34.9,34.7,30.03,North,0,3.0,4.0,99,0.06,,,0.46,meteohub,2013-12-07 04:05:00,
2013-12-06 23:10:00,34.9,34.7,30.03,NNW,338,3.0,4.0,99,0.05,,,0.46,meteohub,2013-12-07 04:10:00,
2013-12-06 23:15:00,34.9,34.7,30.03,North,0,4.0,5.0,99,0.07,,,0.48,meteohub,2013-12-07 04:15:00,
2013-12-06 23:20:00,34.9,34.7,30.02,NW,315,2.0,5.0,99,0.06,,,0.48,meteohub,2013-12-07 04:20:00,
2013-12-06 23:25:00,34.7,34.5,30.03,NW,315,3.0,5.0,99,0.05,,,0.48,meteohub,2013-12-07 04:25:00,
2013-12-06 23:30:00,34.7,34.5,30.04,North,0,4.0,4.0,99,0.05,,,0.48,meteohub,2013-12-07 04:30:00,
2013-12-06 23:35:00,34.7,34.5,30.04,NW,315,2.0,4.0,99,0.05,,,0.48,meteohub,2013-12-07 04:35:00,
2013-12-06 23:40:00,34.7,34.5,30.03,North,0,3.0,4.0,99,0.06,,,0.50,meteohub,2013-12-07 04:40:00,
2013-12-06 23:45:00,34.5,34.3,30.03,North,0,4.0,5.0,99,0.06,,,0.51,meteohub,2013-12-07 04:45:00,
2013-12-06 23:50:00,34.5,34.3,30.04,NW,315,4.0,5.0,99,0.06,,,0.51,meteohub,2013-12-07 04:50:00,
2013-12-06 23:55:00,34.3,34.2,30.03,NE,45,2.0,7.0,99,0.05,,,0.51,meteohub,2013-12-07 04:55:00,